Christchurch, New Zealand

8:40 PM NZST on August 24, 2017 (GMT +1200)
Christchurch International

Weather History for NZCH - November, 2012

Change the Weather History Date:

Tuesday, November 6, 2012

  Actual Average Record
Temperature  
Mean Temperature 44 °F -  
Max Temperature 50 °F 63 °F 75 °F (1998)
Min Temperature 39 °F 44 °F 28 °F (2008)
Degree Days  
Heating Degree Days 20    
Moisture  
Dew Point 35 °F    
Average Humidity 70    
Maximum Humidity 87    
Minimum Humidity 50    
Precipitation  
Precipitation 0.00 in - - ()
Sea Level Pressure  
Sea Level Pressure 30.41 in    
Wind  
Wind Speed 8 mph ()    
Max Wind Speed 15 mph    
Max Gust Speed -    
Visibility 6.2 miles    
Events      
Averages and records for this station are not official NWS values.
T = Trace of Precipitation, MM = Missing Value Source: Averaged Metar Reports

Daily Weather History Graph

Daily Weather History Graph

Search for Another Location

Airport or City:

Trip Planner

Search our weather history database for the weather conditions in past years. The results will help you decide how hot, cold, wet, or windy it might be!

Date:

Astronomy

Nov. 06, 2012 Rise Set
Actual Time 6:05 AM NZDT 8:22 PM NZDT
Civil Twilight 5:33 AM NZDT 8:53 PM NZDT
Nautical Twilight 4:54 AM NZDT 9:33 PM NZDT
Astronomical Twilight 4:11 AM NZDT 10:16 PM NZDT
Moon 1:24 AM NZDT (11/6) 11:37 AM NZDT (11/6)
Length of Visible Light 15h 19m
Length of Day
14h 16m
Waning Gibbous, 60% of the Moon is Illuminated
Nov 6
Waning Gibbous
Nov 7
Last Quarter
Nov 14
New
Nov 21
First Quarter
Nov 29
Full

Hourly Weather History & Observations

Time (NZDT) Temp. Windchill Dew Point Humidity Pressure Visibility Wind Dir Wind Speed Gust Speed Precip Events Conditions
12:00 AM 42.8 °F 37.0 °F 35.6 °F 76% 30.36 in 6.2 mi WSW 10.4 mph - N/A   Mostly Cloudy
1:00 AM 42.8 °F 38.6 °F 37.4 °F 81% 30.39 in 6.2 mi WSW 6.9 mph - N/A   Mostly Cloudy
2:00 AM 41.0 °F 37.1 °F 37.4 °F 87% 30.39 in 6.2 mi WSW 5.8 mph - N/A   Mostly Cloudy
3:00 AM 41.0 °F 35.8 °F 37.4 °F 87% 30.39 in 6.2 mi WSW 8.1 mph - N/A   Mostly Cloudy
4:00 AM 41.0 °F 35.8 °F 37.4 °F 87% 30.39 in 6.2 mi WSW 8.1 mph - N/A   Mostly Cloudy
5:00 AM 41.0 °F 36.4 °F 37.4 °F 87% 30.39 in 6.2 mi West 6.9 mph - N/A   Mostly Cloudy
6:00 AM 41.0 °F 35.8 °F 37.4 °F 87% 30.39 in 6.2 mi West 8.1 mph - N/A   Mostly Cloudy
7:00 AM 41.0 °F 36.4 °F 37.4 °F 87% 30.42 in 6.2 mi WSW 6.9 mph - N/A   Mostly Cloudy
8:00 AM 42.8 °F 38.6 °F 37.4 °F 81% 30.42 in 6.2 mi West 6.9 mph - N/A   Mostly Cloudy
9:00 AM 44.6 °F 40.7 °F 39.2 °F 81% 30.45 in 6.2 mi WSW 6.9 mph - N/A   Mostly Cloudy
10:00 AM 46.4 °F 40.7 °F 37.4 °F 71% 30.45 in 6.2 mi WSW 12.7 mph - N/A   Mostly Cloudy
11:00 AM 46.4 °F 41.1 °F 33.8 °F 62% 30.45 in 6.2 mi SSW 11.5 mph - N/A   Mostly Cloudy
12:00 PM 48.2 °F - 35.6 °F 62% 30.45 in 6.2 mi South 15.0 mph - N/A   Mostly Cloudy
1:00 PM 50.0 °F - 33.8 °F 54% 30.42 in 6.2 mi South 11.5 mph - N/A   Mostly Cloudy
2:00 PM 50.0 °F - 33.8 °F 54% 30.42 in 6.2 mi South 11.5 mph - N/A   Mostly Cloudy
3:00 PM 50.0 °F - 32.0 °F 50% 30.42 in 6.2 mi South 11.5 mph - N/A   Mostly Cloudy
4:00 PM 50.0 °F - 33.8 °F 54% 30.39 in 6.2 mi SSW 12.7 mph - N/A   Mostly Cloudy
5:00 PM 50.0 °F - 33.8 °F 54% 30.39 in 6.2 mi SSW 11.5 mph - N/A   Scattered Clouds
6:00 PM 50.0 °F - 33.8 °F 54% 30.39 in 6.2 mi SSW 10.4 mph - N/A   Scattered Clouds
7:00 PM 48.2 °F - 32.0 °F 54% 30.39 in 6.2 mi South 8.1 mph - N/A   Scattered Clouds
8:00 PM 46.4 °F 42.4 °F 32.0 °F 57% 30.39 in - SSW 8.1 mph - N/A   Clear
9:00 PM 41.0 °F - 32.0 °F 70% 30.42 in - SW 2.3 mph - N/A   Clear
10:00 PM 39.2 °F 35.9 °F 32.0 °F 75% 30.42 in 6.2 mi SW 4.6 mph - N/A   Scattered Clouds
11:00 PM 42.8 °F 40.1 °F 33.8 °F 70% 30.45 in 6.2 mi West 4.6 mph - N/A   Scattered Clouds